Content
SEND FEEDBACK

Daily
Averages
Monthly
Summary
United States of America

NORMANNA, TEXAS


Home > North America > United States > Texas
Elevation: 247 feet     Latitude: 28 27N     Longitude: 097 42W

WEATHER
 
SELECT A DAY
Number of Records: 178,137;   Date Range: 5/14/07 - 9/30/14
 
SHARE

PRINT THIS DATA

[ ← Previous Day ]
WEATHER ALMANAC - JANUARY 19, 2013
[ Next Day → ]
[ °C ]   °F
Weather ElementAverageHighLow
Temperature56.5 °F71.6 °F (2:35 pm)44.6 °F (1:15 am)
Dewpoint45.1 °F50 °F (8:35 am)41 °F (3:55 pm)
Humidity71 %100 % (1:15 am)33 % (3:55 pm)
Barometer30.24 in30.31 in (1:15 am)30.15 in (5:15 pm)
Wind Speed5.5 mph12.7 mph (10:35 am)
Wind Gust16.1 mph (10:35 am)
Weather ElementAverage
Visibility9.9 mi
Wind DirectionESE (115.7 °)

Weather ElementTotal
Precipitation---
Heating Degree Days6.9 (Base 65)
Growing Degree Days8.1 (Base 50)
Averaged from 51 records on January 19, 2013
WEATHER CONDITIONS BREAKOUT
WIND DIRECTION BREAKOUT
WEATHER BY HOUR - JANUARY 19, 2013
[ °C ]   °F
Local TimeTemperatureDewpointHumidityBarometerVisibilityWind DirectionWind SpeedGust SpeedPrecipitationEventsConditions
1:15 AM44.6 °F44.6 °F100 %30.31 in10.0 miENE (70°)5.8 mphClear
1:35 AM44.6 °F44.6 °F100 %30.31 in10.0 miENE (70°)5.8 mphClear
1:55 AM44.6 °F44.6 °F100 %30.31 in10.0 miENE (70°)5.8 mphClear
2:15 AM44.6 °F44.6 °F100 %30.30 in10.0 miENE (60°)4.6 mphClear
2:35 AM44.6 °F44.6 °F100 %30.29 in10.0 miENE (70°)4.6 mphClear
2:55 AM44.6 °F44.6 °F100 %30.29 in10.0 miENE (60°)4.6 mphClear
3:15 AM44.6 °F44.6 °F100 %30.28 in10.0 miENE (60°)4.6 mphClear
3:55 AM46.4 °F46.4 °F100 %30.27 in10.0 miENE (60°)5.8 mphClear
4:15 AM44.6 °F44.6 °F100 %30.28 in10.0 miENE (70°)4.6 mphClear
4:35 AM46.4 °F46.4 °F100 %30.27 in10.0 miENE (60°)5.8 mphClear
5:15 AM44.6 °F44.6 °F100 %30.27 in10.0 miEast (90°)5.8 mphClear
5:35 AM44.6 °F44.6 °F100 %30.27 in10.0 miEast (80°)4.6 mphClear
5:55 AM44.6 °F44.6 °F100 %30.27 in10.0 miENE (70°)3.5 mphClear
7:15 AM44.6 °F44.6 °F100 %30.28 in10.0 miENE (70°)4.6 mphClear
7:55 AM44.6 °F44.6 °F100 %30.28 in7.0 miENE (60°)4.6 mphClear
8:15 AM46.4 °F46.4 °F100 %30.29 in10.0 miEast (80°)4.6 mphClear
8:35 AM50.0 °F50.0 °F100 %30.29 in10.0 miEast (100°)4.6 mphClear
9:35 AM59.0 °F50.0 °F72 %30.30 in10.0 miSE (140°)6.9 mphClear
9:55 AM60.8 °F50.0 °F68 %30.31 in10.0 miSSE (150°)11.5 mphClear
10:35 AM64.4 °F50.0 °F59 %30.31 in10.0 miSouth (170°)12.7 mph16.1 mphClear
11:15 AM64.4 °F50.0 °F59 %30.30 in10.0 miSouth (170°)11.5 mphClear
12:15 PM68.0 °F48.2 °F49 %30.27 in10.0 miSouth (190°)11.5 mph16.1 mphScattered Clouds
12:55 PM69.8 °F46.4 °F43 %30.24 in10.0 miSSW (210°)9.2 mphScattered Clouds
1:15 PM69.8 °F46.4 °F43 %30.22 in10.0 miSouth (180°)10.4 mphClear
2:15 PM69.8 °F44.6 °F40 %30.19 in10.0 miSouth (170°)5.8 mphScattered Clouds
2:35 PM71.6 °F44.6 °F38 %30.19 in10.0 miSW (230°)9.2 mphScattered Clouds
2:55 PM71.6 °F42.8 °F35 %30.18 in10.0 miWSW (240°)9.2 mphScattered Clouds
3:15 PM71.6 °F42.8 °F35 %30.17 in10.0 miSW (220°)4.6 mphClear
3:35 PM71.6 °F42.8 °F35 %30.17 in10.0 miCalmClear
3:55 PM71.6 °F41.0 °F33 %30.17 in10.0 miSSW (210°)5.8 mphClear
4:15 PM71.6 °F41.0 °F33 %30.16 in10.0 miCalmClear
4:35 PM71.6 °F42.8 °F35 %30.16 in10.0 miSSW (200°)8.1 mphClear
5:15 PM69.8 °F42.8 °F38 %30.15 in10.0 miSSE (150°)4.6 mphClear
5:35 PM69.8 °F42.8 °F38 %30.15 in10.0 miSSE (160°)5.8 mphClear
5:55 PM66.2 °F42.8 °F43 %30.15 in10.0 miSouth (170°)4.6 mphClear
6:15 PM62.6 °F44.6 °F52 %30.16 in10.0 miSSE (160°)6.9 mphClear
6:35 PM60.8 °F46.4 °F59 %30.17 in10.0 miSSE (150°)5.8 mphClear
7:15 PM59.0 °F46.4 °F63 %30.18 in10.0 miESE (120°)5.8 mphClear
7:35 PM57.2 °F44.6 °F63 %30.19 in10.0 miSE (130°)6.9 mphClear
7:55 PM57.2 °F44.6 °F63 %30.20 in10.0 miSE (130°)6.9 mphClear
8:15 PM55.4 °F44.6 °F67 %30.21 in10.0 miSE (130°)5.8 mphClear
8:35 PM55.4 °F44.6 °F67 %30.22 in10.0 miSE (130°)4.6 mphClear
8:55 PM53.6 °F44.6 °F72 %30.23 in10.0 miSE (130°)3.5 mphClear
9:15 PM53.6 °F44.6 °F72 %30.23 in10.0 miSE (130°)4.6 mphClear
9:35 PM53.6 °F44.6 °F72 %30.23 in10.0 miSE (130°)4.6 mphClear
9:55 PM51.8 °F44.6 °F76 %30.23 in10.0 miSE (130°)3.5 mphClear
10:35 PM51.8 °F44.6 °F76 %30.23 in10.0 miSSE (150°)3.5 mphClear
10:55 PM51.8 °F44.6 °F76 %30.23 in10.0 miESE (120°)3.5 mphClear
11:15 PM51.8 °F46.4 °F82 %30.23 in10.0 miCalmClear
11:35 PM51.8 °F46.4 °F82 %30.23 in10.0 miCalmClear
11:55 PM50.0 °F44.6 °F82 %30.23 in10.0 miCalmClear
Hourly data recorded from KBEA, located miles away from Normanna, Texas







STORIES FROM OUR PARTNERS